SCP
0 0 0 0 0 0 0 0 0 0 0 0 0 0 0 0 0 0 0 0 0 0 0 0 0 0 0 0 0 0 0 0 0 0 0 0 0 0 0 0 0 0 0 0
0 0 0 0 0 0 0 0 0 0 0 0 0 0 0 0 0 0 0 0 0 0 0 0 0 0 0 0 0 0 0 0 0 0 0 0 0 0 0 0 0 0 0 0
0 0 0 0 0 0 0 0 0 0 0 0 0 0 0 0 0 0 0 0 0 0 0 0 0 0 0 0 0 0 0 0 0 0 0 0 0 0 0 0 0 0 0 0
0 0 0 0 0 0 0 0 0 0 0 0 0 0 0 0 0 -0 -0 0 0 0 0 0 0 0 0 0 0 0 0 0 0 0 0 0 0 0 0 0 0 0 0 0
0 0 0 0 0 0 0 0 0 0 0 0 0 0 0 0 0 -0 0 0 0 0 0 0 0 0 0 0 0 0 0 0 0 0 0 0 0 0 0 0 0 0 0 0
0 0 0 0 0 0 0 0 0 0 0 0 0 0 0 0 0 -0 0 0 0 0 0 0 0 0 0 0 0 0 0 0 0 0 0 0 0 0 0 0 0 0 0 0
0 0 0 0 0 0 0 0 0 0 0 0 0 0 0 0 -0 0 0 0 0 0 0 0 0 0 0 0 0 0 0 0 0 0 0 0 0 0 0 0 0 0 0 0
0 0 0 0 0 0 0 0 0 0 0 0 0 0 -0 -0 -0 0 0 0 0 0 0 0 0 0 0 0 0 0 0 0 0 0 0 0 0 0 0 0 0 0 0 0
0 0 0 0 0 0 0 0 0 0 0 0 0 0 -0 -0 -0 -0 -0 0 0 0 0 0 0 -0 -0 -0 0 0 0 0 0 0 0 0 0 0 0 0 0 0 0 0
0 0 0 0 0 0 0 0 0 0 0 0 0 0 0 -0 -0 -0 -0 -0 0 0 0 -0 -0 -0 -0 -0 -0 -0 -0 -0 0 0 0 0 0 0 0 0 0 0 0 0
0 0 0 0 0 0 0 0 0 0 0 0 0 0 0 0 0 -0 0 -0 -0 -0 -0 -0 -0 -0 -0 -0 -0 -0 -0 -0 -0 -0 -0 -0 -0 -0 -0 0 -0 0 0 0
0 0 0 0 0 0 0 0 0 0 0 0 0 0 0 0 0 0 0 -0 -0 -0 -0 -0 0 -0 -0 -0 -0 -0 -0 -0 -0 -0 -0 -0 -0 -0 -0 -0 0 0 0 0
0 0 0 0 0 0 0 0 0 0 0 0 0 0 0 0 0 0 0 -0 -0 -0 0 0 0 -0 -0 -0 -0 0 0 -0 -0 -0 -0 -0 -0 0 0 0 0 0 0 0
0 0 0 0 0 0 0 0 0 0 0 0 0 0 0 0 0 0 0 -0 0 0 0 0 0 0 0 0 0 0 0 0 0 0 0 0 0 0 0 0 0 0 0 0
0 0 0 0 0 0 0 0 0 0 0 0 0 0 0 -0 -0 0 0 0 0 0 0 0 0 0 0 0 0 0 0 0 0 0 0 0 0 0 0 0 0 0 0 0
0 0 0 0 0 0 0 0 0 0 0 0 0 0 0 0 0 0 0 0 0 0 0 0 0 0 0 0 0 0 0 0 0 0 0 0 0 0 0 0 0 0 0 0
0 0 0 0 0 0 0 0 0 0 0 0 0 0 0 0 0 0 0 0 0 0 0 0 0 0 0 0 0 0 0 0 0 0 0 0 0 0 0 0 0 0 0 0
0 0 0 0 0 0 0 0 0 0 0 0 0 0 0 0 0 0 0 0 0 0 0 0 0 0 0 0 0 0 0 0 -0 -0 -0 -0 -0 0 0 0 0 0 0 0
0 0 0 0 0 0 0 0 0 0 0 0 0 0 0 0 0 0 0 0 0 0 0 0 0 0 -0 -0 -0 -0 -0 -0 -0 0 0 0 0 0 0 0 0 0 0 0
0 0 0 0 0 0 0 0 0 0 0 0 0 0 0 0 0 0 0 0 0 0 0 0 0 0 -0 -0 -0 -0 -0 0 0 0 0 0 0 0 0 0 0 0 0 0
0 0 0 0 0 0 0 0 0 0 0 0 0 0 0 0 0 0 0 0 0 0 0 0 -0 -0 -0 0 0 0 0 0 0 0 0 0 0 0 0 0 0 0 0 0
0 0 0 0 0 0 0 0 0 0 0 0 0 0 0 0 0 0 0 0 0 0 0 0 0 -0 -0 0 0 -0 0 0 0 0 0 0 0 0 0 0 0 0 0 0
0 0 0 0 0 0 0 0 0 0 0 0 0 0 0 0 0 0 0 0 0 0 0 0 -0 -0 -0 -0 0 -0 -0 -0 -0 0 0 0 0 0 0 0 0 0 0 0
0 0 0 0 0 0 0 0 0 0 0 0 0 0 0 0 0 0 0 0 0 -0 -0 -0 -0 -0 -0 -0 -0 -0 -0 0 0 0 0 0 0 0 0 0 0 0 0 0
0 0 0 0 0 0 0 0 0 0 0 0 0 0 0 0 0 0 0 -0 -0 -0 -0 -0 -0 -0 -0 -0 -0 -0 -0 0 0 0 0 0 0 0 0 0 0 0 0 0
0 0 0 0 0 0 0 0 0 0 0 0 0 0 0 0 0 0 -0 -0 -0 -0 -0 -0 -0 -0 -0 0 0 -0 -0 0 0 0 0 0 0 0 0 0 0 0 0 0
Wind_Speed_500mb
3 11 8 18 16 16 21 30 33 32 20 5 23 18 8 17 30 33 28 29 21 16 6 20 12 15 27 41 44 38 37 40 43 46 47 47 49 42 42 38 36 32 32 30
9 11 11 14 16 13 18 22 17 19 8 7 21 12 18 20 28 27 29 34 25 19 27 13 30 28 26 42 39 44 40 37 39 45 47 47 43 45 42 39 36 36 33 32
12 9 12 14 16 16 15 8 10 10 10 15 11 3 10 17 27 28 38 31 32 32 26 48 34 29 16 22 21 35 28 34 35 38 38 41 39 42 39 34 31 30 33 36
12 4 13 17 11 14 14 8 22 16 7 3 4 2 7 10 20 32 43 36 32 36 20 67 66 49 38 18 8 8 23 38 34 32 33 36 42 40 36 34 28 25 28 31
7 12 17 15 10 18 14 31 23 8 5 5 16 6 6 9 15 15 28 29 11 39 72 51 72 65 58 50 39 27 11 26 30 37 38 41 38 36 35 33 27 27 30 31
22 10 7 10 26 16 23 20 5 12 4 2 18 11 7 13 12 13 17 17 24 55 58 31 68 62 59 55 54 44 38 26 17 15 24 20 20 22 26 21 23 20 24 18
8 14 5 5 18 4 26 22 4 7 2 7 17 10 6 19 17 18 23 33 20 38 40 52 66 66 56 46 48 47 49 42 39 27 27 22 14 18 20 18 11 3 5 8
6 6 7 13 6 8 15 9 7 9 9 7 14 14 15 20 18 18 15 22 23 19 25 39 39 44 46 36 34 34 31 44 46 39 33 34 28 27 18 20 18 11 11 12
6 7 1 1 4 8 9 7 4 7 2 3 5 5 5 14 19 24 24 27 28 30 38 31 26 26 27 51 47 34 34 29 20 39 36 25 22 17 26 18 15 20 17 17
4 12 3 5 5 5 7 8 2 4 7 3 7 5 9 11 14 18 22 28 34 36 37 30 25 25 24 16 15 14 22 41 40 41 36 37 35 21 11 12 11 13 17 19
7 4 0 7 8 7 2 2 4 4 6 6 1 8 9 12 10 13 19 25 29 31 28 27 31 31 29 22 15 7 5 7 6 6 8 9 10 10 8 10 10 17 13 11
5 8 8 4 3 1 2 4 4 5 3 4 6 8 9 13 13 14 16 18 21 23 24 27 32 35 33 30 27 25 22 17 13 9 8 7 6 6 9 10 8 10 9 9
2 3 7 4 4 5 1 2 4 7 4 5 4 9 12 17 18 14 13 12 14 18 23 27 28 28 30 32 32 31 29 27 21 17 15 13 12 11 12 12 13 14 11 10
1 6 12 9 8 4 5 4 4 6 5 2 7 17 23 21 20 20 17 10 11 14 17 20 24 27 29 32 32 33 33 30 26 24 20 15 14 14 13 12 12 11 11 11
4 6 6 17 15 12 12 15 13 12 11 9 6 16 28 27 26 26 19 15 13 11 15 17 22 25 26 26 26 28 30 31 31 29 25 21 18 15 15 15 15 14 13 13
6 3 3 7 13 13 11 21 20 19 18 15 8 11 22 32 30 26 25 20 15 13 13 15 16 18 20 21 24 27 29 30 32 31 30 29 25 20 16 16 17 18 17 17
6 6 4 6 7 11 12 25 29 16 16 19 16 14 28 26 31 31 23 15 13 11 10 10 12 13 15 17 21 25 28 30 31 32 32 30 27 25 24 22 20 18 18 18
7 5 1 5 5 11 3 4 2 24 19 23 3 15 34 33 30 29 24 20 11 5 7 10 11 12 13 13 16 21 26 29 29 29 30 30 29 29 27 25 24 25 26 25
8 8 4 5 8 16 21 13 11 16 21 25 21 19 29 30 28 22 24 17 13 6 2 5 6 10 14 14 17 22 24 24 24 25 27 28 29 28 27 27 26 25 26 26
6 10 10 4 8 9 3 9 8 8 12 36 34 33 40 41 17 17 35 28 13 3 3 3 5 8 13 18 21 22 23 23 24 24 26 27 30 31 30 28 28 28 28 27
8 5 18 14 12 14 8 19 15 10 2 39 45 44 43 20 8 34 41 26 10 4 2 6 7 10 15 19 23 25 22 22 23 22 22 24 26 28 28 27 27 27 28 29
21 18 10 9 11 20 27 17 13 2 9 30 35 39 39 21 22 37 35 19 9 5 2 5 6 7 14 20 23 25 27 31 32 33 32 30 32 33 34 34 32 30 29 28
12 13 11 18 12 4 44 2 28 4 14 22 31 34 39 35 36 34 21 14 10 5 4 6 9 10 14 21 27 29 28 28 29 30 32 35 37 39 40 42 42 42 40 38
13 17 7 6 16 31 22 37 15 19 15 27 32 44 44 37 32 25 19 13 8 4 4 7 10 13 13 16 21 27 30 34 35 36 36 37 43 46 49 50 50 51 51 52
11 27 15 10 14 11 30 34 39 29 28 34 37 43 34 29 26 25 19 14 8 6 7 10 7 8 15 22 28 33 39 43 46 47 47 47 47 49 54 58 62 65 62 61
24 16 15 14 23 30 16 51 51 46 48 46 43 38 33 31 30 24 20 14 10 10 7 0 8 18 26 30 34 40 45 48 51 54 54 55 57 58 60 64 69 69 70 73
Wind_Direction_500mb
197 271 334 336 338 316 293 303 307 314 323 281 252 222 273 29 22 7 358 1 347 16 300 210 198 202 209 195 186 188 200 208 208 211 216 219 215 215 221 226 236 230 231 229
222 260 7 324 315 305 311 295 307 308 338 251 55 44 42 40 29 22 11 9 7 30 55 135 178 141 139 186 197 199 212 214 212 215 220 220 219 218 226 233 238 236 230 236
282 352 332 316 319 341 328 246 299 279 289 72 7 54 356 11 5 21 25 8 19 52 47 81 123 156 168 126 139 204 220 218 211 215 216 219 223 227 226 228 235 236 239 240
279 303 310 318 319 344 317 349 326 326 255 319 15 310 29 336 357 19 16 12 14 52 42 68 83 89 94 90 124 202 186 202 213 220 225 217 218 221 225 230 229 231 239 241
48 312 326 311 351 326 280 325 307 308 346 240 7 317 22 336 359 1 15 17 295 60 55 47 76 79 72 67 65 79 144 194 201 210 209 216 217 221 221 232 232 241 238 239
277 311 280 308 308 284 290 297 238 239 245 154 360 336 47 4 328 316 326 318 13 55 65 45 72 77 74 61 47 53 59 105 131 192 215 220 199 200 215 224 219 229 226 228
258 229 300 295 316 156 342 341 246 228 353 37 357 26 47 336 350 321 306 317 6 59 57 56 64 69 70 65 49 41 50 52 65 61 78 117 103 88 73 129 121 90 218 163
322 207 343 14 22 315 321 356 12 326 350 9 23 11 6 352 7 349 330 24 22 53 54 56 64 66 73 72 62 47 32 41 43 46 55 68 59 53 35 33 46 22 356 349
309 231 271 153 323 309 354 40 4 297 296 248 53 135 107 22 35 44 36 47 44 45 48 58 54 72 79 75 70 64 43 47 28 35 36 49 51 35 16 357 9 348 327 341
32 292 75 341 250 195 328 341 185 206 302 7 90 59 81 39 29 33 35 38 39 45 52 47 58 62 59 62 71 63 70 66 60 58 57 55 61 54 37 332 337 295 278 283
312 274 69 256 28 22 71 47 334 283 319 332 150 102 40 86 53 49 44 45 45 52 50 57 58 61 61 57 57 43 23 31 52 21 2 19 50 57 318 300 301 273 267 252
38 315 281 341 12 348 348 23 296 291 60 16 327 114 117 103 95 88 72 52 50 52 52 57 59 59 58 58 53 45 39 35 30 2 7 358 332 327 303 304 296 289 295 302
112 239 291 219 178 198 328 17 307 279 260 225 260 133 142 133 132 118 99 77 59 47 43 43 48 49 51 51 49 44 42 40 32 11 9 8 359 351 337 340 333 332 332 316
297 306 267 307 354 340 274 262 276 287 266 167 249 137 165 164 159 152 141 115 69 56 51 47 46 42 43 42 41 41 40 39 33 28 21 3 347 339 336 335 327 315 316 312
245 259 252 283 280 272 272 271 267 253 264 253 71 194 177 175 168 164 151 142 122 85 60 52 45 38 33 34 36 38 36 31 29 27 22 15 8 352 336 325 324 324 327 319
180 233 320 268 248 259 272 265 257 249 253 256 254 204 163 168 159 158 162 156 130 105 74 47 34 29 31 33 29 25 21 20 19 16 14 9 3 359 347 335 324 319 314 312
184 181 181 257 323 299 258 241 219 216 212 215 200 189 166 167 172 167 168 161 135 100 58 32 23 13 11 16 19 18 13 11 10 7 5 4 1 354 347 338 330 319 313 307
155 155 211 301 294 245 70 116 345 229 226 218 171 166 175 174 168 163 165 161 139 75 13 354 356 5 3 359 2 3 1 1 360 359 360 358 356 353 348 340 330 323 317 312
223 181 227 250 235 312 269 202 179 175 238 219 206 171 173 151 147 170 173 166 158 172 286 348 2 12 4 352 343 343 349 347 348 350 354 358 356 353 349 342 332 322 314 308
202 258 239 160 254 257 31 153 164 151 264 191 187 172 162 159 178 183 177 179 182 266 330 340 325 326 333 338 337 342 347 345 347 342 347 350 353 351 349 344 337 326 315 305
164 203 220 218 252 280 204 149 159 169 300 171 178 173 166 174 145 157 175 178 200 210 321 315 322 343 354 360 6 3 354 341 339 333 325 331 331 335 335 332 327 322 314 304
178 179 187 189 230 259 150 133 205 55 115 163 176 172 171 168 160 163 169 181 192 198 287 352 7 5 353 347 348 351 347 344 342 340 334 322 320 321 322 318 314 310 302 293
212 203 179 205 215 118 187 245 209 273 171 170 174 180 171 164 157 164 176 182 197 240 281 321 345 353 347 340 342 343 337 329 325 322 320 315 306 304 304 306 306 303 299 292
234 203 213 148 229 231 216 223 235 223 194 177 179 174 173 172 178 181 181 187 215 242 283 305 326 334 350 356 355 345 337 334 331 326 324 316 309 305 298 293 291 290 290 288
186 169 184 240 259 277 240 224 218 206 192 173 167 172 183 188 189 184 188 210 224 238 272 298 323 7 1 358 353 344 337 331 327 324 322 319 311 305 300 294 290 285 281 277
185 187 197 226 201 218 232 225 209 204 194 185 181 186 197 198 189 193 207 214 230 263 257 124 15 4 357 353 346 333 323 318 317 318 320 318 314 310 305 299 293 286 282 278
Wind_Speed_850mb
3 11 8 18 16 16 21 30 33 32 20 5 23 18 8 17 30 33 28 29 21 16 6 20 12 15 27 41 44 38 37 40 43 46 47 47 49 42 42 38 36 32 32 30
9 11 11 14 16 13 18 22 17 19 8 7 21 12 18 20 28 27 29 34 25 19 27 13 30 28 26 42 39 44 40 37 39 45 47 47 43 45 42 39 36 36 33 32
12 9 12 14 16 16 15 8 10 10 10 15 11 3 10 17 27 28 38 31 32 32 26 48 34 29 16 22 21 35 28 34 35 38 38 41 39 42 39 34 31 30 33 36
12 4 13 17 11 14 14 8 22 16 7 3 4 2 7 10 20 32 43 36 32 36 20 67 66 49 38 18 8 8 23 38 34 32 33 36 42 40 36 34 28 25 28 31
7 12 17 15 10 18 14 31 23 8 5 5 16 6 6 9 15 15 28 29 11 39 72 51 72 65 58 50 39 27 11 26 30 37 38 41 38 36 35 33 27 27 30 31
22 10 7 10 26 16 23 20 5 12 4 2 18 11 7 13 12 13 17 17 24 55 58 31 68 62 59 55 54 44 38 26 17 15 24 20 20 22 26 21 23 20 24 18
8 14 5 5 18 4 26 22 4 7 2 7 17 10 6 19 17 18 23 33 20 38 40 52 66 66 56 46 48 47 49 42 39 27 27 22 14 18 20 18 11 3 5 8
6 6 7 13 6 8 15 9 7 9 9 7 14 14 15 20 18 18 15 22 23 19 25 39 39 44 46 36 34 34 31 44 46 39 33 34 28 27 18 20 18 11 11 12
6 7 1 1 4 8 9 7 4 7 2 3 5 5 5 14 19 24 24 27 28 30 38 31 26 26 27 51 47 34 34 29 20 39 36 25 22 17 26 18 15 20 17 17
4 12 3 5 5 5 7 8 2 4 7 3 7 5 9 11 14 18 22 28 34 36 37 30 25 25 24 16 15 14 22 41 40 41 36 37 35 21 11 12 11 13 17 19
7 4 0 7 8 7 2 2 4 4 6 6 1 8 9 12 10 13 19 25 29 31 28 27 31 31 29 22 15 7 5 7 6 6 8 9 10 10 8 10 10 17 13 11
5 8 8 4 3 1 2 4 4 5 3 4 6 8 9 13 13 14 16 18 21 23 24 27 32 35 33 30 27 25 22 17 13 9 8 7 6 6 9 10 8 10 9 9
2 3 7 4 4 5 1 2 4 7 4 5 4 9 12 17 18 14 13 12 14 18 23 27 28 28 30 32 32 31 29 27 21 17 15 13 12 11 12 12 13 14 11 10
1 6 12 9 8 4 5 4 4 6 5 2 7 17 23 21 20 20 17 10 11 14 17 20 24 27 29 32 32 33 33 30 26 24 20 15 14 14 13 12 12 11 11 11
4 6 6 17 15 12 12 15 13 12 11 9 6 16 28 27 26 26 19 15 13 11 15 17 22 25 26 26 26 28 30 31 31 29 25 21 18 15 15 15 15 14 13 13
6 3 3 7 13 13 11 21 20 19 18 15 8 11 22 32 30 26 25 20 15 13 13 15 16 18 20 21 24 27 29 30 32 31 30 29 25 20 16 16 17 18 17 17
6 6 4 6 7 11 12 25 29 16 16 19 16 14 28 26 31 31 23 15 13 11 10 10 12 13 15 17 21 25 28 30 31 32 32 30 27 25 24 22 20 18 18 18
7 5 1 5 5 11 3 4 2 24 19 23 3 15 34 33 30 29 24 20 11 5 7 10 11 12 13 13 16 21 26 29 29 29 30 30 29 29 27 25 24 25 26 25
8 8 4 5 8 16 21 13 11 16 21 25 21 19 29 30 28 22 24 17 13 6 2 5 6 10 14 14 17 22 24 24 24 25 27 28 29 28 27 27 26 25 26 26
6 10 10 4 8 9 3 9 8 8 12 36 34 33 40 41 17 17 35 28 13 3 3 3 5 8 13 18 21 22 23 23 24 24 26 27 30 31 30 28 28 28 28 27
8 5 18 14 12 14 8 19 15 10 2 39 45 44 43 20 8 34 41 26 10 4 2 6 7 10 15 19 23 25 22 22 23 22 22 24 26 28 28 27 27 27 28 29
21 18 10 9 11 20 27 17 13 2 9 30 35 39 39 21 22 37 35 19 9 5 2 5 6 7 14 20 23 25 27 31 32 33 32 30 32 33 34 34 32 30 29 28
12 13 11 18 12 4 44 2 28 4 14 22 31 34 39 35 36 34 21 14 10 5 4 6 9 10 14 21 27 29 28 28 29 30 32 35 37 39 40 42 42 42 40 38
13 17 7 6 16 31 22 37 15 19 15 27 32 44 44 37 32 25 19 13 8 4 4 7 10 13 13 16 21 27 30 34 35 36 36 37 43 46 49 50 50 51 51 52
11 27 15 10 14 11 30 34 39 29 28 34 37 43 34 29 26 25 19 14 8 6 7 10 7 8 15 22 28 33 39 43 46 47 47 47 47 49 54 58 62 65 62 61
24 16 15 14 23 30 16 51 51 46 48 46 43 38 33 31 30 24 20 14 10 10 7 0 8 18 26 30 34 40 45 48 51 54 54 55 57 58 60 64 69 69 70 73
Wind_Direction_850mb
197 271 334 336 338 316 293 303 307 314 323 281 252 222 273 29 22 7 358 1 347 16 300 210 198 202 209 195 186 188 200 208 208 211 216 219 215 215 221 226 236 230 231 229
222 260 7 324 315 305 311 295 307 308 338 251 55 44 42 40 29 22 11 9 7 30 55 135 178 141 139 186 197 199 212 214 212 215 220 220 219 218 226 233 238 236 230 236
282 352 332 316 319 341 328 246 299 279 289 72 7 54 356 11 5 21 25 8 19 52 47 81 123 156 168 126 139 204 220 218 211 215 216 219 223 227 226 228 235 236 239 240
279 303 310 318 319 344 317 349 326 326 255 319 15 310 29 336 357 19 16 12 14 52 42 68 83 89 94 90 124 202 186 202 213 220 225 217 218 221 225 230 229 231 239 241
48 312 326 311 351 326 280 325 307 308 346 240 7 317 22 336 359 1 15 17 295 60 55 47 76 79 72 67 65 79 144 194 201 210 209 216 217 221 221 232 232 241 238 239
277 311 280 308 308 284 290 297 238 239 245 154 360 336 47 4 328 316 326 318 13 55 65 45 72 77 74 61 47 53 59 105 131 192 215 220 199 200 215 224 219 229 226 228
258 229 300 295 316 156 342 341 246 228 353 37 357 26 47 336 350 321 306 317 6 59 57 56 64 69 70 65 49 41 50 52 65 61 78 117 103 88 73 129 121 90 218 163
322 207 343 14 22 315 321 356 12 326 350 9 23 11 6 352 7 349 330 24 22 53 54 56 64 66 73 72 62 47 32 41 43 46 55 68 59 53 35 33 46 22 356 349
309 231 271 153 323 309 354 40 4 297 296 248 53 135 107 22 35 44 36 47 44 45 48 58 54 72 79 75 70 64 43 47 28 35 36 49 51 35 16 357 9 348 327 341
32 292 75 341 250 195 328 341 185 206 302 7 90 59 81 39 29 33 35 38 39 45 52 47 58 62 59 62 71 63 70 66 60 58 57 55 61 54 37 332 337 295 278 283
312 274 69 256 28 22 71 47 334 283 319 332 150 102 40 86 53 49 44 45 45 52 50 57 58 61 61 57 57 43 23 31 52 21 2 19 50 57 318 300 301 273 267 252
38 315 281 341 12 348 348 23 296 291 60 16 327 114 117 103 95 88 72 52 50 52 52 57 59 59 58 58 53 45 39 35 30 2 7 358 332 327 303 304 296 289 295 302
112 239 291 219 178 198 328 17 307 279 260 225 260 133 142 133 132 118 99 77 59 47 43 43 48 49 51 51 49 44 42 40 32 11 9 8 359 351 337 340 333 332 332 316
297 306 267 307 354 340 274 262 276 287 266 167 249 137 165 164 159 152 141 115 69 56 51 47 46 42 43 42 41 41 40 39 33 28 21 3 347 339 336 335 327 315 316 312
245 259 252 283 280 272 272 271 267 253 264 253 71 194 177 175 168 164 151 142 122 85 60 52 45 38 33 34 36 38 36 31 29 27 22 15 8 352 336 325 324 324 327 319
180 233 320 268 248 259 272 265 257 249 253 256 254 204 163 168 159 158 162 156 130 105 74 47 34 29 31 33 29 25 21 20 19 16 14 9 3 359 347 335 324 319 314 312
184 181 181 257 323 299 258 241 219 216 212 215 200 189 166 167 172 167 168 161 135 100 58 32 23 13 11 16 19 18 13 11 10 7 5 4 1 354 347 338 330 319 313 307
155 155 211 301 294 245 70 116 345 229 226 218 171 166 175 174 168 163 165 161 139 75 13 354 356 5 3 359 2 3 1 1 360 359 360 358 356 353 348 340 330 323 317 312
223 181 227 250 235 312 269 202 179 175 238 219 206 171 173 151 147 170 173 166 158 172 286 348 2 12 4 352 343 343 349 347 348 350 354 358 356 353 349 342 332 322 314 308
202 258 239 160 254 257 31 153 164 151 264 191 187 172 162 159 178 183 177 179 182 266 330 340 325 326 333 338 337 342 347 345 347 342 347 350 353 351 349 344 337 326 315 305
164 203 220 218 252 280 204 149 159 169 300 171 178 173 166 174 145 157 175 178 200 210 321 315 322 343 354 360 6 3 354 341 339 333 325 331 331 335 335 332 327 322 314 304
178 179 187 189 230 259 150 133 205 55 115 163 176 172 171 168 160 163 169 181 192 198 287 352 7 5 353 347 348 351 347 344 342 340 334 322 320 321 322 318 314 310 302 293
212 203 179 205 215 118 187 245 209 273 171 170 174 180 171 164 157 164 176 182 197 240 281 321 345 353 347 340 342 343 337 329 325 322 320 315 306 304 304 306 306 303 299 292
234 203 213 148 229 231 216 223 235 223 194 177 179 174 173 172 178 181 181 187 215 242 283 305 326 334 350 356 355 345 337 334 331 326 324 316 309 305 298 293 291 290 290 288
186 169 184 240 259 277 240 224 218 206 192 173 167 172 183 188 189 184 188 210 224 238 272 298 323 7 1 358 353 344 337 331 327 324 322 319 311 305 300 294 290 285 281 277
185 187 197 226 201 218 232 225 209 204 194 185 181 186 197 198 189 193 207 214 230 263 257 124 15 4 357 353 346 333 323 318 317 318 320 318 314 310 305 299 293 286 282 278